FW1000 Weather Reports


time (UTC)temp
C
wind
direction
speed
KPH
gust
KPH
rain 1hr
cm
rain 24hr
cm
rain mn
cm
humidity
%
barometer
mb
20260510100034 21 94 0.0 0.0 0.00 0.05 0.00 79 993.6
20260510094533 21 94 0.0 0.0 0.00 0.05 0.00 79 993.4
20260510093136 21 94 0.0 0.0 0.00 0.05 0.00 79 993.3
20260510091536 21 94 0.0 0.0 0.00 0.05 0.00 79 993.1
20260510090032 21 94 0.0 0.0 0.00 0.05 0.00 79 993.0
20260510084535 21 94 0.0 0.0 0.00 0.05 0.00 80 992.9
20260510083030 21 94 0.0 0.0 0.00 0.05 0.00 80 992.8
20260510081531 21 94 0.0 0.0 0.00 0.05 0.00 80 993.0
20260510080029 21 94 0.0 0.0 0.00 0.05 0.00 80 992.8
20260510074529 21 94 0.0 0.0 0.00 0.05 0.00 80 992.7
20260510073031 21 94 0.0 0.0 0.00 0.05 0.00 80 992.6
20260510071528 21 94 0.0 0.0 0.00 0.05 0.00 80 992.6
20260510070032 21 94 0.0 0.0 0.00 0.05 0.00 80 992.7
20260510064532 21 270 0.0 0.0 0.00 0.05 0.00 80 992.6
20260510063024 21 270 0.0 0.0 0.00 0.05 0.00 80 992.9
20260510061524 21 270 0.0 0.0 0.00 0.05 0.00 81 993.0
20260510060023 21 270 0.0 0.0 0.00 0.05 0.00 81 993.3
20260510054520 21 270 0.0 0.0 0.00 0.05 0.00 81 993.4
20260510053023 21 270 0.0 0.0 0.00 0.05 0.00 81 993.7
20260510051517 21 270 0.0 0.0 0.00 0.05 0.00 82 993.9
20260510050015 21 270 0.0 0.0 0.00 0.05 0.00 82 994.2
20260510044518 21 260 0.0 0.0 0.00 0.05 0.00 82 994.0
20260510043016 21 260 0.0 0.0 0.00 0.05 0.00 82 994.1
20260510041515 21 260 0.0 0.0 0.00 0.05 0.00 82 994.1
20260510040011 22 260 0.0 0.0 0.00 0.05 0.00 82 994.0
20260510034518 22 260 0.0 0.0 0.00 0.08 0.05 82 994.2
20260510033014 22 260 0.0 0.0 0.00 0.08 0.05 82 994.2
20260510031509 22 260 0.0 0.0 0.00 0.08 0.05 83 994.1
20260510030011 22 260 0.0 0.0 0.00 0.08 0.05 83 994.0
20260510024507 22 260 0.0 0.0 0.00 0.08 0.05 83 994.0
20260510023007 22 260 0.0 0.0 0.00 0.08 0.05 83 993.7
20260510021516 22 260 0.0 0.0 0.00 0.08 0.05 83 993.2
20260510020006 22 260 0.0 0.0 0.00 0.08 0.05 83 993.0
20260510014505 22 260 0.0 0.0 0.00 0.08 0.05 83 993.0
20260510013007 22 260 0.0 0.0 0.00 0.08 0.05 83 993.0
20260510011508 22 260 0.0 0.0 0.00 0.08 0.05 84 992.4
20260510010004 22 260 0.0 0.0 0.00 0.08 0.05 84 992.4
20260510004503 22 260 0.0 0.0 0.00 0.08 0.05 84 992.9
20260510003003 22 260 0.0 0.0 0.00 0.08 0.05 84 992.8
20260510001503 22 260 0.0 0.0 0.00 0.08 0.05 85 993.0
20260510000001 22 259 0.0 0.0 0.00 0.08 0.05 85 992.8
20260509234502 22 259 0.0 0.0 0.00 0.08 0.05 85 992.7
20260509233036 22 259 0.0 0.0 0.00 0.08 0.05 85 992.6
20260509231534 22 259 0.0 0.0 0.00 0.08 0.05 85 992.6
20260509230032 22 259 0.0 0.0 0.00 0.08 0.05 85 992.7
20260509224545 22 259 0.0 0.0 0.00 0.08 0.05 85 992.5
20260509223031 22 259 0.0 0.0 0.00 0.08 0.05 85 992.8
20260509221532 22 259 0.0 0.0 0.00 0.08 0.05 86 992.5
20260509220032 22 252 0.0 0.0 0.00 0.08 0.05 86 992.7
20260509214530 22 265 0.0 0.0 0.00 0.08 0.05 86 992.6
20260509213030 22 131 0.0 0.0 0.00 0.08 0.05 86 992.6
20260509211529 23 82 0.0 0.0 0.00 0.08 0.05 85 992.4
20260509210028 23 82 0.0 0.0 0.00 0.08 0.05 85 992.2
20260509204528 23 82 0.0 0.0 0.03 0.08 0.05 86 992.2
20260509203033 23 82 0.0 0.0 0.03 0.08 0.05 86 992.3
20260509201527 23 82 0.0 0.0 0.03 0.08 0.05 86 992.2
20260509200025 23 82 0.0 0.0 0.05 0.08 0.05 86 992.1
20260509194527 23 82 0.0 0.0 0.03 0.05 0.03 85 992.3
20260509193024 23 82 0.0 0.0 0.03 0.05 0.03 85 992.3
20260509191523 24 82 0.0 0.0 0.03 0.05 0.03 84 992.1
20260509190022 24 82 0.0 0.0 0.00 0.03 0.00 81 992.0
20260509184534 25 82 0.0 0.0 0.00 0.03 0.00 80 992.1
20260509183021 25 82 0.0 0.0 0.00 0.03 0.00 79 992.4
20260509181520 25 82 0.0 0.0 0.00 0.03 0.00 79 992.3
20260509180019 26 82 0.0 0.0 0.00 0.03 0.00 78 992.6
20260509174522 25 82 0.0 0.0 0.00 0.03 0.00 79 992.9
20260509173019 26 82 0.0 0.0 0.00 0.03 0.00 78 993.0
20260509171517 26 82 0.0 0.0 0.00 0.03 0.00 78 992.8
20260509170024 25 82 0.0 0.0 0.00 0.03 0.00 80 993.0
20260509164513 25 82 0.0 0.0 0.00 0.03 0.00 80 992.8
20260509163016 25 82 0.0 0.0 0.00 0.03 0.00 80 993.0
20260509161513 25 60 0.0 0.0 0.00 0.03 0.00 81 993.2
20260509160012 24 65 0.0 0.0 0.00 0.03 0.00 81 993.0
20260509154516 24 86 0.0 0.0 0.00 0.03 0.00 83 993.0
20260509153012 24 86 0.0 0.0 0.00 0.03 0.00 82 993.2
20260509151510 25 86 0.0 0.0 0.00 0.03 0.00 80 993.3
20260509150009 25 86 0.0 0.0 0.00 0.03 0.00 80 993.7
20260509144509 25 86 0.0 0.0 0.00 0.03 0.00 82 993.5
20260509143009 25 86 0.0 0.0 0.00 0.03 0.00 82 993.6
20260509141503 24 86 0.0 0.0 0.00 0.03 0.00 83 993.2
20260509140058 23 86 0.0 1.6 0.00 0.03 0.00 84 993.5
20260509134557 23 269 0.0 0.0 0.00 0.03 0.00 84 993.5
20260509133106 23 268 0.0 1.6 0.00 0.03 0.00 84 993.1
20260509131555 23 246 0.0 0.0 0.00 0.03 0.00 85 992.8
20260509130105 23 246 0.0 0.0 0.00 0.03 0.00 85 992.6
20260509124552 23 242 0.0 0.0 0.00 0.03 0.00 86 992.6
20260509123049 22 242 0.0 0.0 0.00 0.03 0.00 86 992.6
20260509121551 22 242 0.0 0.0 0.00 0.03 0.00 86 992.3
20260509120042 22 242 0.0 0.0 0.00 0.03 0.00 86 992.3
20260509114538 22 233 0.0 0.0 0.00 0.03 0.00 86 992.2
20260509113039 22 203 0.0 1.6 0.00 0.03 0.00 86 991.4
20260509111537 22 226 0.0 0.0 0.00 0.03 0.00 86 991.2
20260509110036 22 229 0.0 3.2 0.00 0.03 0.00 86 990.8
20260509104548 21 352 0.0 4.8 0.00 0.03 0.00 86 990.8
20260509103035 21 209 0.0 12.9 0.00 0.03 0.00 86 990.9
20260509101537 21 153 0.0 3.2 0.00 0.03 0.00 86 990.8